Location: Clyde
(45.1830°S, 169.3170°E)
Time: 09:16:19
(UTC+12:00)

Cosmos 1825 - Pass Details

Date: 14 May 2021
Orbit: 501 x 507 km, 82.5° (Epoch: 15 June)

Event Time Altitude Azimuth Distance (km) Brightness Sun altitude
Rises 18:05:09 0° 9° (N) 2,600 5.9 -7.4°
Reaches altitude 10° 18:07:19 10° 16° (NNE) 1,723 4.9 -7.8°
Maximum altitude 18:10:53 42° 87° (E) 743 2.6 -8.4°
Drops below altitude 10° 18:14:31 10° 158° (SSE) 1,748 4.5 -9.0°
Sets 18:16:44 0° 164° (SSE) 2,642 5.5 -9.3°
